{"data":{"norad_id":68265,"intl_designator":"2026-055D","name":"STARLINK-37133","alt_names":[],"object_type":"PAYLOAD","status":"ACTIVE","operator":null,"country":"US","launch_date":"2026-03-19","launch_site_code":"AFETR","launch_vehicle":null,"mission":null,"orbit_class":"UNKNOWN","rcs_meters":null,"size_class":null,"mass_kg":null,"dimensions":null,"purposes":["comms"],"wikipedia_slug":null,"has_3d_model":false,"image_url":null,"decayed_at":null,"tle_current":{"epoch":"2026-09-19T22:52:11.849952Z","epoch_age_seconds":98660,"freshness":"FRESH","line1":"1 68265U 26055D   26262.95291493  .00012357  00000+0  37617-3 0  9999","line2":"2 68265  53.1569 134.0908 0000811 100.2746 259.8348 15.34406938 29714","mean_motion":15.34406938,"eccentricity":8.11e-5,"inclination_deg":53.1569,"raan_deg":134.0908,"arg_perigee_deg":100.2746,"mean_anomaly_deg":259.8348,"bstar":0.00037617,"rev_number":2971,"period_min":93.847333737747,"perigee_km":462.12782861558,"apogee_km":463.2374095578,"semimajor_km":6840.8196190867,"source":"CELESTRAK","updated_at":"2026-09-20T09:00:43.846330Z"}}}